Regional Weather Roundup
Issued by NWS

Home | Current Version | Previous Version | Text Only | Print | Product List | Glossary On
Versions: 1 2 3 4 5 6 7 8 9 10 11 12 13 14 15 16 17 18 19 20 21 22 23 24 25 26 27 28 29 30 31 32 33 34 35 36 37 38 39 40 41 42 43 44 45 46 47 48 49 50
000
ASUS43 KMKX 200700
RWRWI

WISCONSIN REGIONAL WEATHER ROUNDUP
NATIONAL WEATHER SERVICE MILWAUKEE/SULLIVAN WI
200 AM CDT WED SEP 20 2017

NOTE: "FAIR" INDICATES FEW OR NO CLOUDS BELOW 12,000 FEET WITH NO
SIGNIFICANT WEATHER AND/OR OBSTRUCTIONS TO VISIBILITY.

WIZ001-002-006>008-014>016-023>028-200800-
NORTHWEST WISCONSIN

CITY           SKY/WX    TMP DP  RH WIND       PRES   REMARKS
SUPERIOR ARPT  CLOUDY    65  59  81 CALM      29.69F
ASHLAND        CLOUDY    64  56  75 SE8G17    29.76F
HAYWARD        CLOUDY    65  59  81 SE13G21   29.77F
SIREN          CLOUDY    67  57  70 SE16G23   29.69F
CUMBERLAND     PTCLDY    63  59  88 SE12G18   29.75S
RICE LAKE      PTCLDY    65  60  83 SE14      29.77S
CHETEK         PTCLDY    65  62  90 SE10G17   29.77S
LADYSMITH      CLOUDY    65  60  83 SE12G17   29.83F
EAU CLAIRE     NOT AVBL
MENOMONIE      CLOUDY    65  61  85 E8        29.75S
NEW RICHMOND   CLOUDY    70  61  73 SE12G21   29.70S
OSCEOLA        CLOUDY    70  61  74 SE16G22   29.69S
$$

WIZ003>005-009-010-017-018-200800-
NORTH CENTRAL WISCONSIN

CITY           SKY/WX    TMP DP  RH WIND       PRES   REMARKS
MANITOWISH WTR PTCLDY    57  56  98 SE10G16   29.88S
ARBOR VITAE    CLEAR     59  55  87 SE14      29.89R
WOODRUFF       CLEAR     59  55  87 SE14      29.89R
RHINELANDER    CLEAR     56  54  93 SE8       29.91S
EAGLE RIVER    CLEAR     55  48  79 SE5       29.91S
LAND O LAKES   CLEAR     55  50  82 SE7       29.92F
PHILLIPS       CLOUDY    60  58  94 SE9       29.86R
TOMAHAWK         N/A     57  54  88 SE3       29.91R
MEDFORD        PTCLDY    60  58  92 SE8       29.87S
MERRILL        CLOUDY    61  61 100 SE9       29.91R
$$

WIZ029-030-035-036-043>047-200800-
CENTRAL WISCONSIN

CITY           SKY/WX    TMP DP  RH WIND       PRES   REMARKS
WAUSAU         MOCLDY    60  59  96 SE8       29.89R
MOSINEE        PTCLDY    59  59 100 SE6       29.91R FOG
MARSHFIELD     CLEAR     61  57  87 SE8       29.87R
STEVENS POINT  CLEAR     59  59 100 SE3       29.90S FOG
WAUPACA        MOCLDY    61  60  97 CALM      29.92R FOG
WAUTOMA        CLOUDY    61  60  97 CALM      29.91R FOG
WISC RAPIDS    CLEAR     62  60  93 SE9       29.89S
CAMP DOUGLAS   NOT AVBL
$$

WIZ011>013-019>022-031-037>040-048>050-200800-
NORTHEAST WISCONSIN

CITY           SKY/WX    TMP DP  RH WIND       PRES   REMARKS
ANTIGO         CLOUDY    56  53  89 SE8       29.94R
SHAWANO        CLEAR     58  55  89 CALM      29.93R
OCONTO         PTCLDY    54  53  97 CALM      29.92R
STURGEON BAY   CLEAR     63  61  93 SE7       29.93S
GREEN BAY      CLEAR     55  55 100 NW5       29.93R
MANITOWOC      CLEAR     64  62  93 S8        29.93R
APPLETON       CLEAR     59  59 100 SE5       29.90S
CLINTONVILLE   CLOUDY    55  54  94 CALM      29.93R
OSHKOSH        CLEAR     57  57 100 S6        29.91S FOG
$$

WIZ032>034-041-042-053>061-200800-
SOUTHWEST WISCONSIN

CITY           SKY/WX    TMP DP  RH WIND       PRES   REMARKS
LA CROSSE      CLEAR     71  64  78 SE10      29.79R
SPARTA         CLOUDY    67  63  84 SE12      29.83R
VIROQUA        CLEAR     65  64  98 SE12      29.83R
BOSCOBEL       CLEAR     69  63  81 VRB5      29.83R
PRAIRIE DU CHI MOCLDY    68  62  82 E6        29.80R
PLATTEVILLE    CLEAR     64  64 100 SE10      29.84F
$$

WIZ056-057-062-063-064-067-068-200800-
SOUTH CENTRAL WISCONSIN

CITY           SKY/WX    TMP DP  RH WIND       PRES   REMARKS
REEDSBURG      CLEAR     64  62  93 SE6       29.87R
BARABOO/DELLS  CLEAR     64  59  86 SE9       29.87S
LONE ROCK      MOCLDY    65  63  93 SE6       29.85S
MINERAL POINT  CLEAR     64  64 100 SE12      29.86F
MADISON        CLEAR     63  61  93 SE8       29.88F
MIDDLETON      CLEAR     64  62  93 SE7       29.89F
WATERTOWN      CLOUDY    60  60 100 SE8       29.90F FOG
MONROE         CLEAR     63  61  94 SE9       29.89S
JANESVILLE     CLEAR     61  61 100 SE5       29.89F FOG
$$

WIZ051-052-058>065-066-070>072-200800-
SOUTHEAST WISCONSIN

CITY           SKY/WX    TMP DP  RH WIND       PRES   REMARKS
MILWAUKEE      CLEAR     63  62  97 SW3       29.92R
WAUKESHA       CLOUDY    61  59  94 SE3       29.93F FOG
MILWAUKEE/TIMM MOCLDY    57  54  88 CALM      29.92S FOG
RACINE         FOG       59  58  96 SE3       29.93S VSB 1/2
BURLINGTON     FOG       62  62 100 CALM      29.92F VSB 3/4
KENOSHA        FOG       56  56 100 CALM      29.92F VSB 1/4
FOND DU LAC    CLOUDY    62  59  90 S8        29.92S
SHEBOYGAN      FOG       54  54 100 CALM      29.92R VSB 1/4
WEST BEND        N/A     57  57 100 CALM      29.92S FOG
JUNEAU         MOCLDY    59  58  98 SE3       29.92S FOG
$$

LSZ147-162-200800-
LAKE SUPERIOR

STATION/POSITION TIME  TEMP    WIND        PRES    WAVE
                       AIR SEA DIR/SP/G            HT/PER
                 (UTC) (F)     (DEG/KT/KT) (MB)    (FT/S)
W MID LAKE BUOY  0550   60 55  120/ 14/ 16 1010.0F   2/ 5
DEVILS ISLAND    0600   64     130/ 11/ 13 1008.7F
PORT WING        0630   67     130/  6/ 16 1006.4F
SAXON HARBOR     0630   65     180/  6/ 12 1008.5S
$$

LMZ867-665-643>646-200800-
LAKE MICHIGAN

STATION/POSITION TIME  TEMP    WIND        PRES    WAVE
                       AIR SEA DIR/SP/G            HT/PER
                 (UTC) (F)     (DEG/KT/KT) (MB)    (FT/S)
S GREEN BAY BUOY 0600   64 66  110/  8/ 10 1012.6F
N MID LAKE BUOY  0550   65 65  140/ 12/ 14 1014.1F   2/ 4
NORTHPORT PIER   0640   66     160/  8/ 12 1013.5R
KEWAUNEE LAKESHO 0624   61      CALM  /  2 1012.2
SHEBOYGAN LAKESH 0600   67     130/ 12/ 13 1012.4F
PORT WASHINGTON  0640   67     170/  4/  6 1013.9S
ATWATER BUOY     0509   68 68  120/ 10/ 10 1013.2
MILWAUKEE LAKESH 0630   67     150/  6/  7   N/A
S MID LAKE BUOY  0550   69 69  100/ 10/ 12 1013.2F   1
KENOSHA   LAKESH 0600   68     130/  8/  8 1013.2
$$

TC  - TEMPERATURE IN CELSIUS
VSB - VISIBILITY IN STATUTE MILES
WCI - WIND CHILL INDEX
HX  - HEAT INDEX





USA.gov is the U.S. government's official web portal to all federal, state and local government web resources and services.